Time,TemperatureF,DewpointF,PressureIn,WindDirection,WindDirectionDegrees,WindSpeedMPH,WindSpeedGustMPH,Humidity,HourlyPrecipIn,Conditions,Clouds,dailyrainin,SoftwareType,DateUTC
2013-11-10 00:00:00,48.7,41.0,30.06,SW,225,3.5,11.0,73,0.00,,,0.00,Rainwise IP-100,2013-11-10 05:00:00,
2013-11-10 00:01:00,48.7,41.0,30.06,SW,225,6.3,11.0,73,0.00,,,0.00,Rainwise IP-100,2013-11-10 05:01:00,
2013-11-10 00:06:00,48.9,40.0,30.06,SSW,202,0.0,14.0,71,0.00,,,0.00,Rainwise IP-100,2013-11-10 05:06:00,
2013-11-10 00:11:00,49.0,40.0,30.06,WSW,247,4.0,11.0,70,0.00,,,0.00,Rainwise IP-100,2013-11-10 05:11:00,
2013-11-10 00:16:00,49.1,39.0,30.06,SW,225,6.5,10.0,69,0.00,,,0.00,Rainwise IP-100,2013-11-10 05:16:00,
2013-11-10 00:21:00,49.1,39.0,30.05,SSW,202,1.2,8.0,68,0.00,,,0.00,Rainwise IP-100,2013-11-10 05:21:00,
2013-11-10 00:26:00,49.1,39.0,30.05,WSW,247,5.4,11.0,68,0.00,,,0.00,Rainwise IP-100,2013-11-10 05:26:00,
2013-11-10 00:31:00,49.1,39.0,30.05,WSW,247,3.3,10.0,68,0.00,,,0.00,Rainwise IP-100,2013-11-10 05:31:00,
2013-11-10 00:36:00,49.1,39.0,30.05,SW,225,5.6,7.0,68,0.00,,,0.00,Rainwise IP-100,2013-11-10 05:36:00,
2013-11-10 00:41:00,49.0,39.0,30.05,WSW,247,5.1,9.0,68,0.00,,,0.00,Rainwise IP-100,2013-11-10 05:41:00,
2013-11-10 00:46:00,49.0,39.0,30.04,West,270,5.8,9.0,69,0.00,,,0.00,Rainwise IP-100,2013-11-10 05:46:00,
2013-11-10 00:51:00,48.9,40.0,30.04,SW,225,2.3,7.0,70,0.00,,,0.00,Rainwise IP-100,2013-11-10 05:51:00,
2013-11-10 00:56:00,48.9,40.0,30.03,WNW,292,0.0,9.0,70,0.00,,,0.00,Rainwise IP-100,2013-11-10 05:56:00,
2013-11-10 01:01:00,49.0,40.0,30.04,WSW,247,4.2,10.0,71,0.00,,,0.00,Rainwise IP-100,2013-11-10 06:01:00,
2013-11-10 01:06:00,48.9,40.0,30.03,WSW,247,5.1,8.0,72,0.00,,,0.00,Rainwise IP-100,2013-11-10 06:06:00,
2013-11-10 01:11:00,48.9,41.0,30.02,WSW,247,6.5,9.0,73,0.00,,,0.00,Rainwise IP-100,2013-11-10 06:11:00,
2013-11-10 01:16:00,49.0,41.0,30.02,SW,225,5.1,11.0,73,0.00,,,0.00,Rainwise IP-100,2013-11-10 06:16:00,
2013-11-10 01:21:00,49.1,41.0,30.02,SSW,202,2.6,11.0,74,0.00,,,0.00,Rainwise IP-100,2013-11-10 06:21:00,
2013-11-10 01:26:00,49.2,41.0,30.02,SSW,202,5.4,11.0,74,0.00,,,0.00,Rainwise IP-100,2013-11-10 06:26:00,
2013-11-10 01:31:00,49.4,41.0,30.01,SW,225,4.4,10.0,74,0.00,,,0.00,Rainwise IP-100,2013-11-10 06:31:00,
2013-11-10 01:36:00,49.6,42.0,30.01,SSW,202,8.2,11.0,74,0.00,,,0.00,Rainwise IP-100,2013-11-10 06:36:00,
2013-11-10 01:41:00,49.7,42.0,30.01,SSW,202,7.5,10.0,75,0.00,,,0.00,Rainwise IP-100,2013-11-10 06:41:00,
2013-11-10 01:46:00,49.8,42.0,30.01,SW,225,6.5,11.0,75,0.00,,,0.00,Rainwise IP-100,2013-11-10 06:46:00,
2013-11-10 01:51:00,50.0,42.0,30.01,SSW,202,6.3,14.0,75,0.00,,,0.00,Rainwise IP-100,2013-11-10 06:51:00,
2013-11-10 01:56:00,50.1,42.0,30.00,SW,225,1.4,11.0,76,0.00,,,0.00,Rainwise IP-100,2013-11-10 06:56:00,
2013-11-10 02:01:00,50.2,42.0,29.99,SSW,202,4.4,9.0,76,0.00,,,0.00,Rainwise IP-100,2013-11-10 07:01:00,
2013-11-10 02:06:00,50.2,42.0,30.00,SSW,202,5.4,10.0,76,0.00,,,0.00,Rainwise IP-100,2013-11-10 07:06:00,
2013-11-10 02:11:00,50.2,43.0,29.99,WSW,247,8.6,13.0,77,0.00,,,0.00,Rainwise IP-100,2013-11-10 07:11:00,
2013-11-10 02:16:00,50.4,43.0,29.98,SW,225,3.7,11.0,76,0.00,,,0.00,Rainwise IP-100,2013-11-10 07:16:00,
2013-11-10 02:21:00,50.5,42.0,29.98,South,180,5.1,13.0,73,0.00,,,0.00,Rainwise IP-100,2013-11-10 07:21:00,
2013-11-10 02:26:00,50.7,41.0,29.98,WSW,247,8.4,9.0,69,0.00,,,0.00,Rainwise IP-100,2013-11-10 07:26:00,
2013-11-10 02:31:00,50.7,39.0,29.98,South,180,4.0,12.0,66,0.00,,,0.00,Rainwise IP-100,2013-11-10 07:31:00,
2013-11-10 02:36:00,50.8,39.0,29.98,SW,225,5.4,12.0,65,0.00,,,0.00,Rainwise IP-100,2013-11-10 07:36:00,
2013-11-10 02:41:00,50.8,39.0,29.98,SSW,202,5.1,13.0,65,0.00,,,0.00,Rainwise IP-100,2013-11-10 07:41:00,
2013-11-10 02:46:00,50.9,39.0,29.98,WSW,247,4.4,12.0,64,0.00,,,0.00,Rainwise IP-100,2013-11-10 07:46:00,
2013-11-10 02:51:00,51.0,39.0,29.98,SW,225,6.3,14.0,64,0.00,,,0.00,Rainwise IP-100,2013-11-10 07:51:00,
2013-11-10 02:56:00,51.0,40.0,29.97,SSW,202,3.5,8.0,65,0.00,,,0.00,Rainwise IP-100,2013-11-10 07:56:00,
2013-11-10 03:01:00,50.9,40.0,29.97,SW,225,4.7,11.0,66,0.00,,,0.00,Rainwise IP-100,2013-11-10 08:01:00,
2013-11-10 03:06:00,51.0,40.0,29.96,SSW,202,5.6,9.0,67,0.00,,,0.00,Rainwise IP-100,2013-11-10 08:06:00,
2013-11-10 03:11:00,51.0,40.0,29.96,South,180,4.7,10.0,67,0.00,,,0.00,Rainwise IP-100,2013-11-10 08:11:00,
2013-11-10 03:16:00,51.0,41.0,29.95,WSW,247,5.4,10.0,68,0.00,,,0.00,Rainwise IP-100,2013-11-10 08:16:00,
2013-11-10 03:21:00,51.1,41.0,29.95,SW,225,7.9,12.0,68,0.00,,,0.00,Rainwise IP-100,2013-11-10 08:21:00,
2013-11-10 03:26:00,51.2,41.0,29.95,SW,225,7.5,14.0,68,0.00,,,0.00,Rainwise IP-100,2013-11-10 08:26:00,
2013-11-10 03:31:00,51.4,41.0,29.95,SSW,202,4.4,12.0,68,0.00,,,0.00,Rainwise IP-100,2013-11-10 08:31:00,
2013-11-10 03:36:00,51.5,42.0,29.95,WSW,247,6.8,13.0,68,0.00,,,0.00,Rainwise IP-100,2013-11-10 08:36:00,
2013-11-10 03:41:00,51.6,42.0,29.95,SW,225,7.0,12.0,68,0.00,,,0.00,Rainwise IP-100,2013-11-10 08:41:00,
2013-11-10 03:46:00,51.7,42.0,29.95,SW,225,6.1,14.0,69,0.00,,,0.00,Rainwise IP-100,2013-11-10 08:46:00,
2013-11-10 03:51:00,51.7,42.0,29.95,SW,225,6.1,15.0,70,0.00,,,0.00,Rainwise IP-100,2013-11-10 08:51:00,
2013-11-10 03:56:00,51.7,42.0,29.94,SSW,202,8.4,13.0,70,0.00,,,0.00,Rainwise IP-100,2013-11-10 08:56:00,
2013-11-10 04:01:00,51.8,42.0,29.94,South,180,5.4,14.0,70,0.00,,,0.00,Rainwise IP-100,2013-11-10 09:01:00,
2013-11-10 04:06:00,52.0,42.0,29.93,SSW,202,9.8,15.0,70,0.00,,,0.00,Rainwise IP-100,2013-11-10 09:06:00,
2013-11-10 04:11:00,52.2,42.0,29.93,SSW,202,9.6,14.0,70,0.00,,,0.00,Rainwise IP-100,2013-11-10 09:11:00,
2013-11-10 04:16:00,52.3,42.0,29.93,SW,225,8.9,13.0,70,0.00,,,0.00,Rainwise IP-100,2013-11-10 09:16:00,
2013-11-10 04:21:00,52.4,42.0,29.93,South,180,6.8,14.0,70,0.00,,,0.00,Rainwise IP-100,2013-11-10 09:21:00,
2013-11-10 04:26:00,52.5,43.0,29.94,South,180,6.1,18.0,71,0.00,,,0.00,Rainwise IP-100,2013-11-10 09:26:00,
2013-11-10 04:31:00,52.6,43.0,29.93,SSW,202,8.4,14.0,71,0.00,,,0.00,Rainwise IP-100,2013-11-10 09:31:00,
2013-11-10 04:36:00,52.7,43.0,29.93,SW,225,9.8,14.0,70,0.00,,,0.00,Rainwise IP-100,2013-11-10 09:36:00,
2013-11-10 04:41:00,52.7,43.0,29.93,WSW,247,3.7,15.0,70,0.00,,,0.00,Rainwise IP-100,2013-11-10 09:41:00,
2013-11-10 04:46:00,52.9,43.0,29.93,SW,225,5.6,16.0,70,0.00,,,0.00,Rainwise IP-100,2013-11-10 09:46:00,
2013-11-10 04:51:00,53.0,43.0,29.92,SW,225,6.3,14.0,71,0.00,,,0.00,Rainwise IP-100,2013-11-10 09:51:00,
2013-11-10 04:56:00,53.0,43.0,29.92,South,180,5.8,12.0,71,0.00,,,0.00,Rainwise IP-100,2013-11-10 09:56:00,
2013-11-10 05:01:00,53.0,43.0,29.92,SSW,202,4.7,15.0,71,0.00,,,0.00,Rainwise IP-100,2013-11-10 10:01:00,
2013-11-10 05:06:00,53.1,44.0,29.92,SSW,202,7.5,12.0,72,0.00,,,0.00,Rainwise IP-100,2013-11-10 10:06:00,
2013-11-10 05:11:00,53.2,44.0,29.92,South,180,5.4,11.0,73,0.00,,,0.00,Rainwise IP-100,2013-11-10 10:11:00,
2013-11-10 05:16:00,53.3,44.0,29.92,SSE,157,5.1,14.0,73,0.00,,,0.00,Rainwise IP-100,2013-11-10 10:16:00,
2013-11-10 05:21:00,53.3,44.0,29.92,South,180,4.9,17.0,73,0.00,,,0.00,Rainwise IP-100,2013-11-10 10:21:00,
2013-11-10 05:26:00,53.4,45.0,29.92,SW,225,7.9,11.0,73,0.00,,,0.00,Rainwise IP-100,2013-11-10 10:26:00,
2013-11-10 05:31:00,53.4,45.0,29.92,SSW,202,6.1,14.0,73,0.00,,,0.00,Rainwise IP-100,2013-11-10 10:31:00,
2013-11-10 05:36:00,53.4,45.0,29.92,SSW,202,5.4,17.0,72,0.00,,,0.00,Rainwise IP-100,2013-11-10 10:36:00,
2013-11-10 05:41:00,53.5,44.0,29.91,SSW,202,7.2,12.0,70,0.00,,,0.00,Rainwise IP-100,2013-11-10 10:41:00,
2013-11-10 05:46:00,53.4,44.0,29.90,SSW,202,9.8,14.0,71,0.00,,,0.00,Rainwise IP-100,2013-11-10 10:46:00,
2013-11-10 05:51:00,53.4,45.0,29.90,SW,225,12.8,13.0,72,0.00,,,0.00,Rainwise IP-100,2013-11-10 10:51:00,
2013-11-10 05:56:00,53.5,45.0,29.91,WSW,247,4.4,12.0,72,0.00,,,0.00,Rainwise IP-100,2013-11-10 10:56:00,
2013-11-10 06:01:00,53.4,45.0,29.90,SSW,202,6.5,14.0,72,0.00,,,0.00,Rainwise IP-100,2013-11-10 11:01:00,
2013-11-10 06:06:00,53.4,45.0,29.90,SSW,202,8.2,16.0,73,0.00,,,0.00,Rainwise IP-100,2013-11-10 11:06:00,
2013-11-10 06:11:00,53.4,45.0,29.90,WSW,247,7.0,20.0,72,0.00,,,0.00,Rainwise IP-100,2013-11-10 11:11:00,
2013-11-10 06:16:00,53.6,44.0,29.90,SSW,202,4.7,11.0,71,0.00,,,0.00,Rainwise IP-100,2013-11-10 11:16:00,
2013-11-10 06:21:00,53.6,44.0,29.90,SW,225,4.7,9.0,71,0.00,,,0.00,Rainwise IP-100,2013-11-10 11:21:00,
2013-11-10 06:26:00,53.6,44.0,29.90,South,180,5.8,13.0,71,0.00,,,0.00,Rainwise IP-100,2013-11-10 11:26:00,
2013-11-10 06:31:00,53.6,45.0,29.90,SSW,202,4.7,11.0,72,0.00,,,0.00,Rainwise IP-100,2013-11-10 11:31:00,
2013-11-10 06:36:00,53.6,45.0,29.90,SW,225,4.7,11.0,72,0.00,,,0.00,Rainwise IP-100,2013-11-10 11:36:00,
2013-11-10 06:41:00,53.6,45.0,29.90,SW,225,10.0,11.0,72,0.00,,,0.00,Rainwise IP-100,2013-11-10 11:41:00,
2013-11-10 06:46:00,53.6,45.0,29.90,SSW,202,3.5,11.0,72,0.00,,,0.00,Rainwise IP-100,2013-11-10 11:46:00,
2013-11-10 06:51:00,53.5,45.0,29.89,SSW,202,10.0,12.0,73,0.00,,,0.00,Rainwise IP-100,2013-11-10 11:51:00,
2013-11-10 06:56:00,53.5,45.0,29.90,SSW,202,6.8,13.0,73,0.00,,,0.00,Rainwise IP-100,2013-11-10 11:56:00,
2013-11-10 07:01:00,53.4,45.0,29.90,WSW,247,4.4,17.0,73,0.00,,,0.00,Rainwise IP-100,2013-11-10 12:01:00,
2013-11-10 07:06:00,53.2,44.0,29.89,SSW,202,6.1,15.0,73,0.00,,,0.00,Rainwise IP-100,2013-11-10 12:06:00,
2013-11-10 07:11:00,53.1,44.0,29.90,SW,225,9.3,12.0,73,0.00,,,0.00,Rainwise IP-100,2013-11-10 12:11:00,
2013-11-10 07:16:00,53.0,45.0,29.90,SW,225,3.0,12.0,74,0.00,,,0.00,Rainwise IP-100,2013-11-10 12:16:00,
2013-11-10 07:21:00,52.9,45.0,29.90,SW,225,5.4,14.0,75,0.00,,,0.00,Rainwise IP-100,2013-11-10 12:21:00,
2013-11-10 07:26:00,52.9,45.0,29.89,WSW,247,8.4,11.0,75,0.00,,,0.00,Rainwise IP-100,2013-11-10 12:26:00,
2013-11-10 07:31:00,52.9,45.0,29.89,SW,225,1.9,13.0,75,0.00,,,0.00,Rainwise IP-100,2013-11-10 12:31:00,
2013-11-10 07:36:00,52.9,44.0,29.89,SW,225,7.2,12.0,73,0.00,,,0.00,Rainwise IP-100,2013-11-10 12:36:00,
2013-11-10 07:41:00,53.0,44.0,29.89,WSW,247,4.0,12.0,73,0.00,,,0.00,Rainwise IP-100,2013-11-10 12:41:00,
2013-11-10 07:46:00,53.0,44.0,29.89,SW,225,6.1,13.0,73,0.00,,,0.00,Rainwise IP-100,2013-11-10 12:46:00,
2013-11-10 07:51:00,53.0,44.0,29.89,SW,225,3.0,12.0,73,0.00,,,0.00,Rainwise IP-100,2013-11-10 12:51:00,
2013-11-10 07:56:00,53.1,45.0,29.89,WSW,247,1.9,12.0,74,0.00,,,0.00,Rainwise IP-100,2013-11-10 12:56:00,
2013-11-10 08:01:00,53.3,44.0,29.88,WSW,247,4.7,11.0,73,0.00,,,0.00,Rainwise IP-100,2013-11-10 13:01:00,
2013-11-10 08:06:00,53.4,44.0,29.90,SSW,202,4.0,11.0,71,0.00,,,0.00,Rainwise IP-100,2013-11-10 13:06:00,
2013-11-10 08:11:00,53.2,43.0,29.89,SW,225,5.1,12.0,70,0.00,,,0.00,Rainwise IP-100,2013-11-10 13:11:00,
2013-11-10 08:16:00,53.2,43.0,29.88,SW,225,7.2,13.0,70,0.00,,,0.00,Rainwise IP-100,2013-11-10 13:16:00,
2013-11-10 08:21:00,53.2,43.0,29.88,West,270,2.8,11.0,70,0.00,,,0.00,Rainwise IP-100,2013-11-10 13:21:00,
2013-11-10 08:26:00,53.2,43.0,29.89,WSW,247,4.2,9.0,70,0.00,,,0.00,Rainwise IP-100,2013-11-10 13:26:00,
2013-11-10 08:31:00,53.2,43.0,29.88,SW,225,6.3,11.0,71,0.00,,,0.00,Rainwise IP-100,2013-11-10 13:31:00,
2013-11-10 08:36:00,53.2,43.0,29.88,SW,225,9.3,9.3,71,0.00,,,0.00,Rainwise IP-100,2013-11-10 13:36:00,
2013-11-10 08:41:00,53.2,43.0,29.88,SW,225,4.4,10.0,70,0.00,,,0.00,Rainwise IP-100,2013-11-10 13:41:00,
2013-11-10 08:46:00,53.3,43.0,29.88,SW,225,2.1,12.0,70,0.00,,,0.00,Rainwise IP-100,2013-11-10 13:46:00,
2013-11-10 08:51:00,53.4,43.0,29.88,SSW,202,4.7,13.0,69,0.00,,,0.00,Rainwise IP-100,2013-11-10 13:51:00,
2013-11-10 08:56:00,53.4,43.0,29.88,WSW,247,3.3,12.0,69,0.00,,,0.00,Rainwise IP-100,2013-11-10 13:56:00,
2013-11-10 09:01:00,53.3,43.0,29.88,West,270,3.7,11.0,69,0.00,,,0.00,Rainwise IP-100,2013-11-10 14:01:00,
2013-11-10 09:06:00,53.1,43.0,29.88,West,270,4.0,10.0,69,0.00,,,0.00,Rainwise IP-100,2013-11-10 14:06:00,
2013-11-10 09:11:00,52.9,43.0,29.87,SW,225,5.4,8.0,69,0.00,,,0.00,Rainwise IP-100,2013-11-10 14:11:00,
2013-11-10 09:16:00,52.8,43.0,29.87,SW,225,5.4,12.0,70,0.00,,,0.00,Rainwise IP-100,2013-11-10 14:16:00,
2013-11-10 09:21:00,52.9,43.0,29.87,WSW,247,4.2,14.0,70,0.00,,,0.00,Rainwise IP-100,2013-11-10 14:21:00,
2013-11-10 09:26:00,53.3,43.0,29.87,West,270,6.5,9.0,70,0.00,,,0.00,Rainwise IP-100,2013-11-10 14:26:00,
2013-11-10 09:31:00,53.5,44.0,29.87,WSW,247,7.5,12.0,70,0.00,,,0.00,Rainwise IP-100,2013-11-10 14:31:00,
2013-11-10 09:36:00,53.3,43.0,29.86,SSW,202,4.9,11.0,69,0.00,,,0.00,Rainwise IP-100,2013-11-10 14:36:00,
2013-11-10 09:41:00,53.2,43.0,29.87,WSW,247,11.0,11.0,70,0.00,,,0.00,Rainwise IP-100,2013-11-10 14:41:00,
2013-11-10 09:46:00,53.3,43.0,29.87,SW,225,8.9,15.0,70,0.00,,,0.00,Rainwise IP-100,2013-11-10 14:46:00,
2013-11-10 09:51:00,53.2,43.0,29.86,WSW,247,5.4,12.0,70,0.00,,,0.00,Rainwise IP-100,2013-11-10 14:51:00,
2013-11-10 09:56:00,53.3,43.0,29.86,SSW,202,6.3,12.0,70,0.00,,,0.00,Rainwise IP-100,2013-11-10 14:56:00,
2013-11-10 10:01:00,53.3,43.0,29.86,WSW,247,11.7,12.0,70,0.00,,,0.00,Rainwise IP-100,2013-11-10 15:01:00,
2013-11-10 10:06:00,53.2,43.0,29.86,West,270,10.0,11.0,69,0.00,,,0.00,Rainwise IP-100,2013-11-10 15:06:00,
2013-11-10 10:11:00,53.1,43.0,29.85,SSW,202,5.1,13.0,69,0.00,,,0.00,Rainwise IP-100,2013-11-10 15:11:00,
2013-11-10 10:16:00,53.2,43.0,29.85,West,270,5.1,12.0,70,0.00,,,0.00,Rainwise IP-100,2013-11-10 15:16:00,
2013-11-10 10:21:00,53.3,43.0,29.85,WNW,292,7.2,12.0,71,0.00,,,0.00,Rainwise IP-100,2013-11-10 15:21:00,
2013-11-10 10:26:00,53.5,44.0,29.84,SSW,202,6.8,13.0,70,0.00,,,0.00,Rainwise IP-100,2013-11-10 15:26:00,
2013-11-10 10:27:00,53.6,44.0,29.83,WSW,247,10.5,11.0,70,0.00,,,0.00,Rainwise IP-100,2013-11-10 15:27:00,
2013-11-10 10:32:00,53.5,43.0,29.84,SSW,202,5.6,13.0,69,0.00,,,0.00,Rainwise IP-100,2013-11-10 15:32:00,
2013-11-10 10:37:00,53.7,43.0,29.84,SW,225,3.3,14.0,69,0.00,,,0.00,Rainwise IP-100,2013-11-10 15:37:00,
2013-11-10 10:42:00,54.3,44.0,29.84,SW,225,10.5,10.5,70,0.00,,,0.00,Rainwise IP-100,2013-11-10 15:42:00,
2013-11-10 10:47:00,54.8,45.0,29.83,SW,225,5.1,11.0,69,0.00,,,0.00,Rainwise IP-100,2013-11-10 15:47:00,
2013-11-10 10:52:00,54.9,45.0,29.83,SW,225,4.7,10.0,68,0.00,,,0.00,Rainwise IP-100,2013-11-10 15:52:00,
2013-11-10 10:57:00,54.5,44.0,29.82,SSW,202,2.8,13.0,68,0.00,,,0.00,Rainwise IP-100,2013-11-10 15:57:00,
2013-11-10 11:02:00,54.2,44.0,29.83,WSW,247,5.6,9.0,69,0.00,,,0.00,Rainwise IP-100,2013-11-10 16:02:00,
2013-11-10 11:07:00,54.1,44.0,29.83,SW,225,8.9,12.0,70,0.00,,,0.00,Rainwise IP-100,2013-11-10 16:07:00,
2013-11-10 11:12:00,54.0,44.0,29.82,WSW,247,3.3,12.0,70,0.00,,,0.00,Rainwise IP-100,2013-11-10 16:12:00,
2013-11-10 11:17:00,53.8,44.0,29.81,SSW,202,7.5,10.0,70,0.00,,,0.00,Rainwise IP-100,2013-11-10 16:17:00,
2013-11-10 11:22:00,53.7,43.0,29.81,WSW,247,6.5,10.0,69,0.00,,,0.00,Rainwise IP-100,2013-11-10 16:22:00,
2013-11-10 11:27:00,53.4,43.0,29.81,West,270,4.7,11.0,69,0.00,,,0.00,Rainwise IP-100,2013-11-10 16:27:00,
2013-11-10 11:32:00,53.4,44.0,29.80,WSW,247,4.7,10.0,70,0.00,,,0.00,Rainwise IP-100,2013-11-10 16:32:00,
2013-11-10 11:37:00,53.6,44.0,29.80,SW,225,1.2,9.0,71,0.00,,,0.00,Rainwise IP-100,2013-11-10 16:37:00,
2013-11-10 11:42:00,53.8,44.0,29.79,WSW,247,7.9,9.0,71,0.00,,,0.00,Rainwise IP-100,2013-11-10 16:42:00,
2013-11-10 11:47:00,54.1,45.0,29.79,WSW,247,8.4,11.0,71,0.00,,,0.00,Rainwise IP-100,2013-11-10 16:47:00,
2013-11-10 11:52:00,54.2,44.0,29.79,WNW,292,5.1,11.0,70,0.00,,,0.00,Rainwise IP-100,2013-11-10 16:52:00,
2013-11-10 11:57:00,54.2,44.0,29.79,SW,225,10.3,12.0,69,0.00,,,0.00,Rainwise IP-100,2013-11-10 16:57:00,
2013-11-10 12:02:00,54.3,44.0,29.78,WSW,247,4.4,11.0,69,0.00,,,0.00,Rainwise IP-100,2013-11-10 17:02:00,
2013-11-10 12:07:00,54.1,44.0,29.79,SSW,202,4.7,12.0,70,0.00,,,0.00,Rainwise IP-100,2013-11-10 17:07:00,
2013-11-10 12:12:00,54.1,44.0,29.78,West,270,2.3,12.0,70,0.00,,,0.00,Rainwise IP-100,2013-11-10 17:12:00,
2013-11-10 12:17:00,54.3,44.0,29.77,WSW,247,3.7,11.0,70,0.00,,,0.00,Rainwise IP-100,2013-11-10 17:17:00,
2013-11-10 12:22:00,54.4,45.0,29.78,WSW,247,7.5,12.0,70,0.00,,,0.00,Rainwise IP-100,2013-11-10 17:22:00,
2013-11-10 12:27:00,54.3,44.0,29.77,SW,225,4.0,10.0,69,0.00,,,0.00,Rainwise IP-100,2013-11-10 17:27:00,
2013-11-10 12:32:00,54.4,45.0,29.77,SW,225,9.3,10.0,69,0.00,,,0.00,Rainwise IP-100,2013-11-10 17:32:00,
2013-11-10 12:37:00,54.4,45.0,29.77,WSW,247,3.7,12.0,69,0.00,,,0.00,Rainwise IP-100,2013-11-10 17:37:00,
2013-11-10 12:42:00,54.5,45.0,29.78,West,270,9.6,10.0,69,0.00,,,0.00,Rainwise IP-100,2013-11-10 17:42:00,
2013-11-10 12:47:00,54.5,45.0,29.77,WSW,247,7.0,10.0,69,0.00,,,0.00,Rainwise IP-100,2013-11-10 17:47:00,
2013-11-10 12:52:00,54.3,44.0,29.77,WSW,247,4.9,11.0,68,0.00,,,0.00,Rainwise IP-100,2013-11-10 17:52:00,
2013-11-10 12:57:00,54.4,44.0,29.77,WSW,247,7.5,9.0,68,0.00,,,0.00,Rainwise IP-100,2013-11-10 17:57:00,
2013-11-10 13:02:00,54.5,45.0,29.77,WSW,247,3.3,11.0,69,0.00,,,0.00,Rainwise IP-100,2013-11-10 18:02:00,
2013-11-10 13:07:00,54.6,45.0,29.77,WSW,247,7.5,9.0,69,0.00,,,0.00,Rainwise IP-100,2013-11-10 18:07:00,
2013-11-10 13:12:00,54.5,45.0,29.77,WSW,247,5.1,10.0,69,0.00,,,0.00,Rainwise IP-100,2013-11-10 18:12:00,
2013-11-10 13:17:00,54.5,44.0,29.77,SW,225,7.5,12.0,68,0.00,,,0.00,Rainwise IP-100,2013-11-10 18:17:00,
2013-11-10 13:22:00,54.5,44.0,29.77,WSW,247,6.5,11.0,68,0.00,,,0.00,Rainwise IP-100,2013-11-10 18:22:00,
2013-11-10 13:27:00,54.3,43.0,29.76,WSW,247,5.4,8.0,67,0.00,,,0.00,Rainwise IP-100,2013-11-10 18:27:00,
2013-11-10 13:32:00,54.2,44.0,29.77,WSW,247,2.6,7.0,68,0.00,,,0.00,Rainwise IP-100,2013-11-10 18:32:00,
2013-11-10 13:37:00,54.2,44.0,29.76,SW,225,6.3,9.0,69,0.00,,,0.00,Rainwise IP-100,2013-11-10 18:37:00,
2013-11-10 13:42:00,54.3,44.0,29.77,West,270,2.3,9.0,69,0.00,,,0.00,Rainwise IP-100,2013-11-10 18:42:00,
2013-11-10 13:47:00,54.3,44.0,29.76,SSW,202,6.5,8.0,69,0.00,,,0.00,Rainwise IP-100,2013-11-10 18:47:00,
2013-11-10 13:52:00,54.6,45.0,29.76,SW,225,5.8,9.0,70,0.00,,,0.00,Rainwise IP-100,2013-11-10 18:52:00,
2013-11-10 13:57:00,55.0,45.0,29.76,WSW,247,5.1,10.0,69,0.00,,,0.00,Rainwise IP-100,2013-11-10 18:57:00,
2013-11-10 14:02:00,55.1,45.0,29.75,WSW,247,4.7,11.0,69,0.00,,,0.00,Rainwise IP-100,2013-11-10 19:02:00,
2013-11-10 14:07:00,55.3,45.0,29.76,WSW,247,3.7,12.0,69,0.00,,,0.00,Rainwise IP-100,2013-11-10 19:07:00,
2013-11-10 14:12:00,55.6,46.0,29.75,WSW,247,3.7,11.0,68,0.00,,,0.00,Rainwise IP-100,2013-11-10 19:12:00,
2013-11-10 14:17:00,55.9,46.0,29.74,WSW,247,7.7,10.0,68,0.00,,,0.00,Rainwise IP-100,2013-11-10 19:17:00,
2013-11-10 14:22:00,56.3,45.0,29.74,SW,225,5.8,9.0,67,0.00,,,0.00,Rainwise IP-100,2013-11-10 19:22:00,
2013-11-10 14:27:00,56.3,45.0,29.75,SSW,202,5.8,10.0,67,0.00,,,0.00,Rainwise IP-100,2013-11-10 19:27:00,
2013-11-10 14:32:00,56.1,45.0,29.75,SW,225,8.9,10.0,67,0.00,,,0.00,Rainwise IP-100,2013-11-10 19:32:00,
2013-11-10 14:37:00,55.8,45.0,29.74,SSW,202,4.7,11.0,67,0.00,,,0.00,Rainwise IP-100,2013-11-10 19:37:00,
2013-11-10 14:42:00,55.7,45.0,29.75,SW,225,5.4,13.0,67,0.00,,,0.00,Rainwise IP-100,2013-11-10 19:42:00,
2013-11-10 14:47:00,55.4,44.0,29.75,SSW,202,4.9,10.0,67,0.00,,,0.00,Rainwise IP-100,2013-11-10 19:47:00,
2013-11-10 14:52:00,54.8,45.0,29.76,WSW,247,4.7,12.0,69,0.00,,,0.00,Rainwise IP-100,2013-11-10 19:52:00,
2013-11-10 14:57:00,54.4,46.0,29.75,WSW,247,3.7,12.0,71,0.00,,,0.00,Rainwise IP-100,2013-11-10 19:57:00,
2013-11-10 15:02:00,54.1,45.0,29.75,WNW,292,4.9,8.0,72,0.00,,,0.00,Rainwise IP-100,2013-11-10 20:02:00,
2013-11-10 15:07:00,54.0,45.0,29.75,SSW,202,4.0,11.0,72,0.00,,,0.00,Rainwise IP-100,2013-11-10 20:07:00,
2013-11-10 15:12:00,53.9,45.0,29.75,West,270,2.1,8.0,71,0.00,,,0.00,Rainwise IP-100,2013-11-10 20:12:00,
2013-11-10 15:17:00,53.7,44.0,29.75,West,270,4.2,5.0,71,0.00,,,0.00,Rainwise IP-100,2013-11-10 20:17:00,
2013-11-10 15:22:00,53.6,44.0,29.77,North,360,12.8,17.0,71,0.00,,,0.00,Rainwise IP-100,2013-11-10 20:22:00,
2013-11-10 15:27:00,53.0,42.0,29.77,WSW,247,7.9,13.0,68,0.00,,,0.00,Rainwise IP-100,2013-11-10 20:27:00,
2013-11-10 15:32:00,52.2,40.0,29.77,NNW,337,4.0,12.0,65,0.00,,,0.00,Rainwise IP-100,2013-11-10 20:32:00,
2013-11-10 15:37:00,51.8,40.0,29.78,NW,315,4.7,9.0,65,0.00,,,0.00,Rainwise IP-100,2013-11-10 20:37:00,
2013-11-10 15:42:00,51.5,40.0,29.79,NW,315,7.0,13.0,65,0.00,,,0.00,Rainwise IP-100,2013-11-10 20:42:00,
2013-11-10 15:47:00,51.3,40.0,29.79,West,270,4.4,10.0,66,0.00,,,0.00,Rainwise IP-100,2013-11-10 20:47:00,
2013-11-10 15:52:00,51.1,40.0,29.81,WNW,292,1.6,11.0,67,0.00,,,0.00,Rainwise IP-100,2013-11-10 20:52:00,
2013-11-10 15:57:00,50.8,40.0,29.81,NNW,337,11.0,17.0,67,0.00,,,0.00,Rainwise IP-100,2013-11-10 20:57:00,
2013-11-10 16:02:00,50.4,39.0,29.82,West,270,16.1,21.0,66,0.00,,,0.00,Rainwise IP-100,2013-11-10 21:02:00,
2013-11-10 16:07:00,49.9,39.0,29.82,WNW,292,11.2,17.0,66,0.00,,,0.00,Rainwise IP-100,2013-11-10 21:07:00,
2013-11-10 16:12:00,49.1,39.0,29.83,NW,315,11.9,20.0,68,0.00,,,0.00,Rainwise IP-100,2013-11-10 21:12:00,
2013-11-10 16:17:00,48.1,39.0,29.82,NW,315,7.9,21.0,71,0.00,,,0.00,Rainwise IP-100,2013-11-10 21:17:00,
2013-11-10 16:22:00,47.5,39.0,29.83,West,270,1.4,13.0,73,0.00,,,0.00,Rainwise IP-100,2013-11-10 21:22:00,
2013-11-10 16:27:00,47.2,39.0,29.82,WSW,247,2.1,16.0,74,0.00,,,0.00,Rainwise IP-100,2013-11-10 21:27:00,
2013-11-10 16:32:00,47.0,39.0,29.82,NNW,337,4.0,20.0,74,0.00,,,0.00,Rainwise IP-100,2013-11-10 21:32:00,
2013-11-10 16:37:00,46.9,39.0,29.82,NNW,337,6.3,10.0,74,0.00,,,0.00,Rainwise IP-100,2013-11-10 21:37:00,
2013-11-10 16:42:00,46.7,39.0,29.82,West,270,6.1,12.0,75,0.00,,,0.00,Rainwise IP-100,2013-11-10 21:42:00,
2013-11-10 16:47:00,46.4,38.0,29.82,WNW,292,0.0,9.0,75,0.00,,,0.00,Rainwise IP-100,2013-11-10 21:47:00,
2013-11-10 16:52:00,46.3,39.0,29.82,SW,225,2.8,7.0,76,0.00,,,0.00,Rainwise IP-100,2013-11-10 21:52:00,
2013-11-10 16:57:00,46.3,39.0,29.82,West,270,1.6,8.0,76,0.00,,,0.00,Rainwise IP-100,2013-11-10 21:57:00,
2013-11-10 17:02:00,46.3,39.0,29.81,West,270,3.3,5.0,76,0.00,,,0.00,Rainwise IP-100,2013-11-10 22:02:00,
2013-11-10 17:07:00,46.3,39.0,29.83,West,270,2.8,8.0,76,0.00,,,0.00,Rainwise IP-100,2013-11-10 22:07:00,
2013-11-10 17:12:00,46.4,39.0,29.83,West,270,4.2,7.0,76,0.00,,,0.00,Rainwise IP-100,2013-11-10 22:12:00,
2013-11-10 17:17:00,46.4,39.0,29.83,WSW,247,5.6,10.0,76,0.00,,,0.00,Rainwise IP-100,2013-11-10 22:17:00,
2013-11-10 17:22:00,46.3,39.0,29.83,WSW,247,3.3,9.0,76,0.00,,,0.00,Rainwise IP-100,2013-11-10 22:22:00,
2013-11-10 17:27:00,46.1,39.0,29.83,WSW,247,5.8,9.0,76,0.00,,,0.00,Rainwise IP-100,2013-11-10 22:27:00,
2013-11-10 17:32:00,46.0,39.0,29.83,WNW,292,5.6,10.0,76,0.00,,,0.00,Rainwise IP-100,2013-11-10 22:32:00,
2013-11-10 17:37:00,45.9,39.0,29.84,SW,225,6.8,7.0,76,0.00,,,0.00,Rainwise IP-100,2013-11-10 22:37:00,
2013-11-10 17:42:00,45.8,38.0,29.84,West,270,6.1,12.0,75,0.00,,,0.00,Rainwise IP-100,2013-11-10 22:42:00,
2013-11-10 17:47:00,45.9,38.0,29.84,WSW,247,4.2,9.0,75,0.00,,,0.00,Rainwise IP-100,2013-11-10 22:47:00,
2013-11-10 17:52:00,46.0,38.0,29.84,WSW,247,3.5,12.0,75,0.00,,,0.00,Rainwise IP-100,2013-11-10 22:52:00,
2013-11-10 17:57:00,46.2,38.0,29.84,WSW,247,5.4,12.0,74,0.00,,,0.00,Rainwise IP-100,2013-11-10 22:57:00,
2013-11-10 18:02:00,46.3,38.0,29.84,WSW,247,7.2,15.0,74,0.00,,,0.00,Rainwise IP-100,2013-11-10 23:02:00,
2013-11-10 18:07:00,46.4,38.0,29.85,West,270,7.2,13.0,74,0.00,,,0.00,Rainwise IP-100,2013-11-10 23:07:00,
2013-11-10 18:12:00,46.3,38.0,29.85,WSW,247,3.7,11.0,74,0.00,,,0.00,Rainwise IP-100,2013-11-10 23:12:00,
2013-11-10 18:17:00,46.2,38.0,29.85,WSW,247,5.1,11.0,74,0.00,,,0.00,Rainwise IP-100,2013-11-10 23:17:00,
2013-11-10 18:22:00,46.0,38.0,29.85,West,270,1.2,8.0,74,0.00,,,0.00,Rainwise IP-100,2013-11-10 23:22:00,
2013-11-10 18:27:00,46.0,38.0,29.86,South,180,2.1,11.0,74,0.00,,,0.00,Rainwise IP-100,2013-11-10 23:27:00,
2013-11-10 18:32:00,46.0,38.0,29.86,West,270,6.8,13.0,74,0.00,,,0.00,Rainwise IP-100,2013-11-10 23:32:00,
2013-11-10 18:37:00,46.0,38.0,29.86,WNW,292,7.0,12.0,74,0.00,,,0.00,Rainwise IP-100,2013-11-10 23:37:00,
2013-11-10 18:42:00,45.9,38.0,29.86,WNW,292,7.7,12.0,75,0.00,,,0.00,Rainwise IP-100,2013-11-10 23:42:00,
2013-11-10 18:47:00,45.8,38.0,29.86,SW,225,6.1,13.0,75,0.00,,,0.00,Rainwise IP-100,2013-11-10 23:47:00,
2013-11-10 18:52:00,45.6,38.0,29.85,WSW,247,8.2,11.0,75,0.00,,,0.00,Rainwise IP-100,2013-11-10 23:52:00,
2013-11-10 18:57:00,45.5,39.0,29.86,WSW,247,7.0,12.0,76,0.00,,,0.00,Rainwise IP-100,2013-11-10 23:57:00,
2013-11-10 19:02:00,45.4,38.0,29.86,WNW,292,9.3,13.0,76,0.00,,,0.00,Rainwise IP-100,2013-11-11 00:02:00,
2013-11-10 19:07:00,45.3,38.0,29.86,WSW,247,3.0,10.0,76,0.00,,,0.00,Rainwise IP-100,2013-11-11 00:07:00,
2013-11-10 19:12:00,45.2,38.0,29.86,WSW,247,4.7,10.0,76,0.00,,,0.00,Rainwise IP-100,2013-11-11 00:12:00,
2013-11-10 19:17:00,45.1,38.0,29.86,WNW,292,3.7,10.0,76,0.00,,,0.00,Rainwise IP-100,2013-11-11 00:17:00,
2013-11-10 19:22:00,45.0,38.0,29.86,WSW,247,3.3,10.0,76,0.00,,,0.00,Rainwise IP-100,2013-11-11 00:22:00,
2013-11-10 19:27:00,45.1,38.0,29.87,WSW,247,9.1,15.0,75,0.00,,,0.00,Rainwise IP-100,2013-11-11 00:27:00,
2013-11-10 19:32:00,45.3,38.0,29.87,WNW,292,4.7,13.0,75,0.00,,,0.00,Rainwise IP-100,2013-11-11 00:32:00,
2013-11-10 19:37:00,45.4,38.0,29.87,NW,315,4.4,15.0,75,0.00,,,0.00,Rainwise IP-100,2013-11-11 00:37:00,
2013-11-10 19:42:00,45.4,38.0,29.88,NNW,337,2.8,14.0,75,0.00,,,0.00,Rainwise IP-100,2013-11-11 00:42:00,
2013-11-10 19:47:00,45.2,38.0,29.87,WSW,247,1.9,11.0,75,0.00,,,0.00,Rainwise IP-100,2013-11-11 00:47:00,
2013-11-10 19:52:00,45.1,38.0,29.87,West,270,3.0,14.0,75,0.00,,,0.00,Rainwise IP-100,2013-11-11 00:52:00,
2013-11-10 19:57:00,44.9,38.0,29.87,WSW,247,5.4,9.0,75,0.00,,,0.00,Rainwise IP-100,2013-11-11 00:57:00,
2013-11-10 20:02:00,44.8,38.0,29.87,West,270,4.2,12.0,76,0.00,,,0.00,Rainwise IP-100,2013-11-11 01:02:00,
2013-11-10 20:07:00,44.8,38.0,29.88,West,270,5.6,9.0,76,0.00,,,0.00,Rainwise IP-100,2013-11-11 01:07:00,
2013-11-10 20:12:00,44.6,38.0,29.88,WNW,292,4.4,11.0,76,0.00,,,0.00,Rainwise IP-100,2013-11-11 01:12:00,
2013-11-10 20:17:00,44.5,38.0,29.88,WSW,247,5.1,13.0,76,0.00,,,0.00,Rainwise IP-100,2013-11-11 01:17:00,
2013-11-10 20:22:00,44.4,37.0,29.88,WSW,247,5.4,11.0,76,0.00,,,0.00,Rainwise IP-100,2013-11-11 01:22:00,
2013-11-10 20:27:00,44.3,37.0,29.88,WSW,247,2.3,11.0,77,0.00,,,0.00,Rainwise IP-100,2013-11-11 01:27:00,
2013-11-10 20:32:00,44.3,37.0,29.88,WSW,247,3.3,11.0,77,0.00,,,0.00,Rainwise IP-100,2013-11-11 01:32:00,
2013-11-10 20:37:00,44.1,37.0,29.88,WSW,247,6.3,9.0,77,0.00,,,0.00,Rainwise IP-100,2013-11-11 01:37:00,
2013-11-10 20:42:00,43.9,37.0,29.88,WSW,247,4.9,14.0,77,0.00,,,0.00,Rainwise IP-100,2013-11-11 01:42:00,
2013-11-10 20:47:00,43.9,37.0,29.88,WNW,292,2.1,9.0,77,0.00,,,0.00,Rainwise IP-100,2013-11-11 01:47:00,
2013-11-10 20:52:00,43.9,37.0,29.88,West,270,2.8,9.0,77,0.00,,,0.00,Rainwise IP-100,2013-11-11 01:52:00,
2013-11-10 20:57:00,43.8,37.0,29.88,West,270,1.4,11.0,77,0.00,,,0.00,Rainwise IP-100,2013-11-11 01:57:00,
2013-11-10 21:02:00,43.8,37.0,29.88,WNW,292,1.2,14.0,76,0.00,,,0.00,Rainwise IP-100,2013-11-11 02:02:00,
2013-11-10 21:07:00,43.9,37.0,29.89,West,270,4.4,9.0,76,0.00,,,0.00,Rainwise IP-100,2013-11-11 02:07:00,
2013-11-10 21:12:00,43.8,37.0,29.89,West,270,5.6,7.0,76,0.00,,,0.00,Rainwise IP-100,2013-11-11 02:12:00,
2013-11-10 21:17:00,43.9,37.0,29.89,SW,225,5.4,13.0,76,0.00,,,0.00,Rainwise IP-100,2013-11-11 02:17:00,
2013-11-10 21:22:00,44.1,37.0,29.89,WNW,292,0.0,8.0,75,0.00,,,0.00,Rainwise IP-100,2013-11-11 02:22:00,
2013-11-10 21:27:00,44.1,37.0,29.89,WNW,292,9.3,9.3,75,0.00,,,0.00,Rainwise IP-100,2013-11-11 02:27:00,
2013-11-10 21:32:00,44.3,37.0,29.89,WSW,247,3.3,11.0,75,0.00,,,0.00,Rainwise IP-100,2013-11-11 02:32:00,
2013-11-10 21:37:00,44.2,37.0,29.89,West,270,5.8,9.0,75,0.00,,,0.00,Rainwise IP-100,2013-11-11 02:37:00,
2013-11-10 21:42:00,43.9,37.0,29.89,SW,225,5.4,11.0,75,0.00,,,0.00,Rainwise IP-100,2013-11-11 02:42:00,
2013-11-10 21:47:00,43.7,37.0,29.90,WSW,247,6.1,13.0,75,0.00,,,0.00,Rainwise IP-100,2013-11-11 02:47:00,
2013-11-10 21:52:00,43.7,37.0,29.90,West,270,6.8,9.0,76,0.00,,,0.00,Rainwise IP-100,2013-11-11 02:52:00,
2013-11-10 21:57:00,43.8,37.0,29.89,WSW,247,3.5,12.0,75,0.00,,,0.00,Rainwise IP-100,2013-11-11 02:57:00,
2013-11-10 22:02:00,43.9,37.0,29.89,WSW,247,4.7,9.0,75,0.00,,,0.00,Rainwise IP-100,2013-11-11 03:02:00,
2013-11-10 22:07:00,43.8,37.0,29.90,WNW,292,5.6,9.0,75,0.00,,,0.00,Rainwise IP-100,2013-11-11 03:07:00,
2013-11-10 22:12:00,43.8,37.0,29.89,WSW,247,6.1,10.0,75,0.00,,,0.00,Rainwise IP-100,2013-11-11 03:12:00,
2013-11-10 22:17:00,43.7,37.0,29.89,West,270,6.3,10.0,75,0.00,,,0.00,Rainwise IP-100,2013-11-11 03:17:00,
2013-11-10 22:22:00,43.6,37.0,29.89,West,270,3.7,10.0,75,0.00,,,0.00,Rainwise IP-100,2013-11-11 03:22:00,
2013-11-10 22:27:00,43.4,36.0,29.90,SW,225,6.5,12.0,76,0.00,,,0.00,Rainwise IP-100,2013-11-11 03:27:00,
2013-11-10 22:32:00,43.4,36.0,29.90,West,270,3.5,15.0,76,0.00,,,0.00,Rainwise IP-100,2013-11-11 03:32:00,
2013-11-10 22:37:00,43.5,37.0,29.90,WSW,247,3.5,11.0,76,0.00,,,0.00,Rainwise IP-100,2013-11-11 03:37:00,
2013-11-10 22:42:00,43.4,36.0,29.90,SW,225,4.0,11.0,76,0.00,,,0.00,Rainwise IP-100,2013-11-11 03:42:00,
2013-11-10 22:47:00,43.5,37.0,29.90,WSW,247,10.0,12.0,76,0.00,,,0.00,Rainwise IP-100,2013-11-11 03:47:00,
2013-11-10 22:52:00,43.5,37.0,29.90,SSW,202,7.5,13.0,76,0.00,,,0.00,Rainwise IP-100,2013-11-11 03:52:00,
2013-11-10 22:57:00,43.5,37.0,29.90,WSW,247,3.0,13.0,76,0.00,,,0.00,Rainwise IP-100,2013-11-11 03:57:00,
2013-11-10 23:02:00,43.4,36.0,29.90,WSW,247,7.0,7.0,76,0.00,,,0.00,Rainwise IP-100,2013-11-11 04:02:00,
2013-11-10 23:07:00,43.3,36.0,29.90,WSW,247,5.4,12.0,76,0.00,,,0.00,Rainwise IP-100,2013-11-11 04:07:00,
2013-11-10 23:12:00,43.3,36.0,29.90,WSW,247,4.9,9.0,76,0.00,,,0.00,Rainwise IP-100,2013-11-11 04:12:00,
2013-11-10 23:17:00,43.2,36.0,29.90,West,270,2.3,6.0,76,0.00,,,0.00,Rainwise IP-100,2013-11-11 04:17:00,
2013-11-10 23:22:00,43.0,36.0,29.90,WSW,247,6.1,9.0,76,0.00,,,0.00,Rainwise IP-100,2013-11-11 04:22:00,
2013-11-10 23:27:00,43.2,36.0,29.90,West,270,3.3,10.0,75,0.00,,,0.00,Rainwise IP-100,2013-11-11 04:27:00,
2013-11-10 23:32:00,43.4,36.0,29.90,WSW,247,5.4,11.0,75,0.00,,,0.00,Rainwise IP-100,2013-11-11 04:32:00,
2013-11-10 23:37:00,43.4,36.0,29.90,West,270,2.1,7.0,74,0.00,,,0.00,Rainwise IP-100,2013-11-11 04:37:00,
2013-11-10 23:42:00,43.6,36.0,29.90,WSW,247,6.3,14.0,73,0.00,,,0.00,Rainwise IP-100,2013-11-11 04:42:00,
2013-11-10 23:47:00,43.7,36.0,29.90,SW,225,2.6,8.0,73,0.00,,,0.00,Rainwise IP-100,2013-11-11 04:47:00,
2013-11-10 23:52:00,43.7,36.0,29.90,WSW,247,1.6,9.0,72,0.00,,,0.00,Rainwise IP-100,2013-11-11 04:52:00,
2013-11-10 23:57:00,43.7,36.0,29.90,WSW,247,4.2,11.0,72,0.00,,,0.00,Rainwise IP-100,2013-11-11 04:57:00,